Miscellaneous Local Product
Issued by NWS Hastings, NE

Home | Current Version | Previous Version | Graphics & Text | Print | Product List | Glossary On
Versions: 1 2 3 4 5 6 7 8 9 10 11 12 13 14 15 16 17 18 19 20 21 22 23 24 25 26 27 28 29 30 31 32 33 34 35 36 37 38 39 40 41 42 43 44 45 46 47 48 49 50
363
AXUS43 KGID 210502
MISGRI

GID CWA HOURLY WEATHER ROUNDUP
NATIONAL WEATHER SERVICE HASTINGS NE
1200 AM CDT MON AUG 21 2017

NOTE: "FAIR" INDICATES FEW OR NO CLOUDS BELOW 12,000 FEET WITH NO
SIGNIFICANT WEATHER AND/OR OBSTRUCTIONS TO VISIBILITY.

...SOUTH CENTRAL NEBRASKA...

CITY           SKY/WX    TMP DP  RH WIND       PRES   REMARKS
GRAND ISLAND   PTCLDY    73  73 100 E6        29.95S
HASTINGS       CLOUDY    78  70  76 S7        29.95R
KEARNEY        CLOUDY    75  73  93 E5        29.95S
ORD            CLEAR     72  68  87 E5        29.96F
YORK           PTCLDY    75  73  94 SE7       29.95R
AURORA         PTCLDY    75  74  96 SE7       29.95S
LEXINGTON      PTCLDY    74  72  93 E3        29.96F
HOLDREGE       MOCLDY    76  65  69 S7        29.95R
HEBRON         PTCLDY    79  73  80 S9        29.96R

...NEBRASKA PANHANDLE...

CITY           SKY/WX    TMP DP  RH WIND       PRES   REMARKS
CHADRON        CLEAR     71  60  68 NE8       29.99F
ALLIANCE       CLOUDY    64  61  90 E5        30.04S
SCOTTSBLUFF    CLOUDY    70  63  78 E8        30.02S
SIDNEY         PTCLDY    66  63  90 E7        30.07S

...WESTERN AND NORTH CENTRAL NEBRASKA...

CITY           SKY/WX    TMP DP  RH WIND       PRES   REMARKS
VALENTINE      CLEAR     69  61  75 NE9       30.02F
AINSWORTH      CLEAR     67  67 100 E5        30.02S
ONEILL         MOCLDY    69  69 100 NE6       30.00S
BROKEN BOW     CLOUDY    74  70  87 NE8       29.98F
IMPERIAL       CLEAR     70  66  87 E6        30.00S
NORTH PLATTE   PTCLDY    72  70  93 E5        29.99R
MCCOOK         PTCLDY    74  72  93 N3        29.96S

...EASTERN NEBRASKA...

CITY           SKY/WX    TMP DP  RH WIND       PRES   REMARKS
NORFOLK        CLOUDY    74  69  85 SE9       29.96F
SO SIOUX CITY  CLOUDY    74  69  85 SE6       29.95F
TEKAMAH        CLEAR     71  67  87 SW6       29.92F
COLUMBUS       PTCLDY    72  69  90 E9        29.96F
ALBION         PTCLDY    74  70  89 E9        29.98S
OMAHA EPPLEY   PTCLDY    75  65  70 S14       29.94F
OFFUTT AFB     CLOUDY    72  67  83 S10       29.95F
MILLARD        CLOUDY    74  69  83 SE9       29.96F
LINCOLN        PTCLDY    78  72  81 SE7       29.96R
NEBRASKA CITY  PTCLDY    74  74 100 SE8       29.98F
BEATRICE       CLEAR     81  74  81 SE12      29.97R
FALLS CITY     PTCLDY    78  74  87 SE12      29.98S

...NORTHERN KANSAS...

CITY           SKY/WX    TMP DP  RH WIND       PRES   REMARKS
GOODLAND       MOCLDY    70  64  81 S8        30.02S
HILL CITY      MOCLDY    80  64  58 S7        29.97R
NORTON         CLEAR     79  57  47 S9        29.95S
PHILLIPSBURG   CLEAR     81  64  57 S9        29.95R
SMITH CENTER   MOCLDY    79  66  65 S9        29.96R
HAYS           PTCLDY    79  67  66 S12       29.98R
RUSSELL        PTCLDY    82  68  62 S15       29.97R
CONCORDIA      PTCLDY    83  68  60 S14       29.96R
SALINA         CLOUDY    87  66  49 S17G28    29.97R
TOPEKA         CLOUDY    81  78  91 SE12      30.02R



USA.gov is the U.S. government's official web portal to all federal, state and local government web resources and services.